カタログに戻る

SL-8 R/B

運用中LEO
NORAD 4800·ROCKET BODY·🇷🇺 Russia

打ち上げ Dec 12, 1970 から Plesetsk Cosmodrome

Loading…

次のパス (今後24時間)

TLE

最新Source: Space-Track

元期: Sep 14, 2026, 09:35 UTC

1 04800U 70108B   26257.39998074  .00000017  00000-0  38658-4 0  9991
2 04800  74.0222 142.2500 0009468 196.8842 163.1967 13.79015373804374

AllMySatでSL-8 R/Bをリアルタイム追跡

Download on the App Store